DECAYED

STARLINK-30210, 57292 (Decayed)

Orbit data source: Space-Track

STARLINK-30210, 57292 was a payload satellite owned by SpaceX/Seattle (US) in LEO that was launched on Mon, 10 Jul 2023 UTC via an FALCON 9 launch vehicle from the Air Force Eastern Test Range (AFETR). Payload-class satellites include a variety of spacecraft equipped with specific instruments for various scientific and technological missions. These include communications satellites like Starlink; space stations such as the ISS; scientific satellites like the Hubble; Earth observation satellites from companies like Planet Labs, Umbra, and HawkEye 360; GPS; miniature CubeSats for education and research; and military/defense satellites.

Not visible in the next 10 days
Identifier
57292, 2023-096C
Orbit
Decayed
Country
Flag of USUS
Related business
Manufacturer
SpaceX/Seattle
Mission
Decayed Commercial Communications
Bus & Motor
STARLINK V2M, Unknown motor
Mass
730 kg wet, ~700 kg dry
Launch date (UTC)
2023-07-10 (3 years ago)
Launch vehicle
FALCON 9
Launch site
Air Force Eastern Test Range (AFETR)
Object type
Payload
Rocket body
Debris
Shape & HBR
Box + 2 Pan, 17.7 m
Radar Cross Section
33.884 m², Large (>1 m²)

Expand to show TLE details & history
Last TLE update: 4 months ago

TLE from 4 months ago
0 STARLINK-30210
1 57292U 23096C   26065.94513889  .01447017  14053-2  14691-2 0  9993
2 57292  42.9614 152.5530 0021968  23.2483 308.1967 16.09760918148062
Epoch: 2026-03-06T22:41Z
TLE epoch observation values (Epoch: 2026-03-06T22:41:00.000Z)
Latitude
-19.295°
Longitude
-14.32085°
Altitude
242.7 km
Speed
7.767 km/s
True Right ascension
08h 42m 24s
True Declination
-19° 10' 47"
Sunlit
Object was in full shadow at epoch
Visualization orbit readout
Latitude
Unknown
Longitude
Unknown
Altitude
Unknown
Speed
Unknown
Apparent Right ascension
Unknown
Apparent Declination
Unknown
Sunlit
N/A
Visualization observer readout
Local Sidereal Time
21:49:34
Azimuth
Unknown
Elevation
Unknown
Doppler factor
Unknown
Orbital elements
Apogee altitude
264.08 km
Perigee altitude
234.96 km
Semi-major axis
6,627.657 km
Eccentricity
0.0022
Inclination
42.9614°
RAAN
152.553°
Arg. of periapsis
23.2483°
True anomaly
307.99853°
Mean anomaly
308.1967°
Eccentric anomaly
308.09765°
Mean motion
4.02257 °/min
Orbital period
89.5 mins
BSTAR
0.0014691
Loading maneuver chart data...
Computing Atmospheric mass density...

Documentation

Showing up to 5 results
|